Powrót do katalogu

STARLINK-32581

AktywnyŁącznośćVLEO
NORAD 62184·PAYLOAD·🇺🇸 United States

Wystrzelony Nov 30, 2024 z Vandenberg Space Force Base

Loading…

Następne Przeloty (najbliższe 24 godziny)

TLE

ŚwieżeSource: CelesTrak SupGP

Epoka: Sep 15, 2026, 02:19 UTC

1 62184C 24225X   26258.09701389 -.00011350  00000+0 -39493-3 0  2586
2 62184  70.0013  35.2872 0003598 270.0451 192.0954 15.29574854    16

Śledź STARLINK-32581 w czasie rzeczywistym z AllMySat

Download on the App Store